SCP
0 0 1 1 1 0 0 0 0 0 0 0 0 0 0 0 0 0 0 0 0 0 0 0 0 0 0 0 0 0 0 1 1 1 0 0 0 0 0 0 0 0 0
0 1 1 1 1 0 0 0 0 0 0 0 0 0 0 0 0 0 0 0 0 0 0 0 0 0 1 0 0 0 0 1 1 1 1 1 0 0 0 0 0 0 0
0 1 1 1 1 1 0 0 0 0 0 0 0 0 0 0 0 0 0 0 0 0 0 0 0 0 0 1 0 1 1 1 1 1 1 1 0 0 0 0 0 0 0
0 1 1 1 1 1 1 0 0 0 0 0 0 0 0 0 0 0 0 0 0 0 0 0 0 0 0 0 1 1 1 1 1 1 1 0 0 0 0 0 0 0 0
0 1 1 1 1 1 1 0 0 0 0 0 0 0 0 0 0 0 0 1 0 0 0 0 0 0 0 0 0 0 1 1 1 1 0 0 0 0 0 0 0 0 1
0 1 1 1 1 1 1 1 0 0 0 0 0 1 0 0 0 1 1 1 0 0 0 0 0 0 0 0 0 0 1 1 1 1 0 0 0 0 0 0 0 1 1
1 1 1 1 1 1 1 1 0 0 0 0 0 0 0 1 1 1 1 1 0 0 0 0 0 0 0 0 0 0 0 1 1 1 0 0 0 0 0 0 0 1 1
1 1 1 1 1 1 1 1 0 0 0 1 0 0 0 0 0 1 1 1 0 0 0 1 1 0 0 0 0 0 0 0 0 0 0 0 0 0 0 0 1 1 1
1 1 1 1 1 1 1 0 0 0 1 1 1 0 0 0 0 0 1 1 0 0 0 1 1 1 1 1 1 1 0 0 0 0 0 0 0 0 0 0 1 1 1
1 1 1 1 1 1 1 0 0 0 1 1 1 0 0 0 0 0 0 0 0 0 0 1 1 1 1 1 1 1 0 0 0 0 0 0 0 0 0 0 1 1 1
1 1 1 1 1 1 1 1 1 0 0 1 0 0 0 0 0 0 0 0 0 0 0 0 0 0 0 0 0 0 0 0 0 0 0 0 0 0 0 0 0 1 1
1 1 1 1 1 1 1 1 1 1 1 1 1 0 0 0 0 0 0 0 0 0 0 0 0 0 0 0 0 0 0 0 0 0 0 0 0 0 1 1 1 1 1
1 1 1 1 1 1 1 1 1 1 1 1 1 1 0 0 0 0 0 0 0 0 0 0 0 0 0 0 0 0 0 0 0 0 0 0 0 0 1 1 1 1 1
1 1 0 1 1 1 1 1 1 2 1 1 1 1 1 0 0 0 0 0 0 0 0 0 0 0 0 0 0 0 0 0 0 0 0 0 0 0 0 0 0 1 1
0 0 0 0 1 1 1 1 1 1 1 1 1 1 1 0 0 0 0 1 0 0 0 0 0 0 0 0 0 0 0 0 0 0 0 0 0 0 0 0 0 1 1
0 0 0 0 0 0 0 0 0 0 1 1 1 1 1 0 0 0 0 0 0 0 0 0 0 0 0 0 0 0 0 0 0 0 0 0 0 0 0 1 1 1 1
0 0 0 0 0 0 0 0 0 0 0 0 0 1 1 0 0 0 0 0 0 0 0 0 0 0 0 0 0 0 0 0 0 0 0 0 0 0 1 1 1 1 1
0 0 0 0 0 0 0 0 0 0 0 0 0 0 1 0 0 0 0 0 0 0 0 0 0 0 0 0 0 0 0 0 0 0 0 0 0 0 0 1 1 1 1
0 0 0 0 0 0 0 0 0 0 0 0 0 0 0 0 0 0 0 0 0 0 0 0 0 0 0 0 0 0 0 0 0 0 0 0 0 0 0 0 0 0 0
0 0 0 0 0 0 0 0 0 0 0 0 0 0 0 0 0 0 0 0 0 0 0 0 0 0 0 0 0 0 0 0 0 0 0 0 0 0 0 0 0 0 0
0 0 0 0 0 0 0 0 0 0 0 0 0 0 0 0 0 0 0 0 0 0 0 0 0 0 0 0 0 0 0 0 0 0 0 0 0 0 0 0 0 0 0
0 0 0 0 0 0 0 0 0 0 1 1 0 0 0 0 0 0 0 0 0 0 0 0 0 0 0 0 0 0 0 0 0 0 0 0 0 0 0 0 0 0 0
0 0 0 0 0 0 0 0 0 0 0 0 0 0 0 0 0 0 0 0 0 0 0 0 0 0 0 0 0 0 0 0 0 0 0 0 0 0 0 0 0 0 0
0 0 0 0 0 0 0 0 0 0 0 0 0 0 0 0 0 0 0 0 0 0 0 0 0 0 0 0 0 0 0 0 0 0 0 0 0 0 0 0 0 0 0
0 0 0 0 0 0 0 0 0 0 0 0 0 0 0 0 0 0 0 0 0 0 0 0 0 0 0 0 0 0 0 0 0 0 0 0 0 0 0 0 0 0 0
0 0 0 0 0 0 0 0 0 0 0 0 0 0 0 0 0 0 0 0 0 0 0 0 0 0 0 0 0 0 0 0 0 0 0 0 0 0 0 0 0 0 0
Wind_Speed
4 4 2 2 6 8 8 8 9 9 9 9 9 9 9 10 10 9 9 9 9 9 9 9 8 8 9 9 10 10 10 10 10 9 9 9 10 10 9 8 7 7 9
4 5 3 3 7 8 8 8 8 8 9 9 9 9 9 9 9 9 8 8 8 9 9 9 9 9 9 9 9 9 9 9 9 9 8 8 9 10 9 9 8 7 9
4 5 5 4 7 8 8 8 8 8 8 8 8 8 8 8 8 8 8 8 8 8 8 9 9 9 9 9 9 9 9 9 9 7 4 5 7 9 9 9 9 8 8
5 5 5 5 7 8 8 7 7 7 7 7 7 7 7 7 7 7 7 7 7 8 8 8 9 9 9 9 8 8 8 8 7 4 4 5 5 7 7 8 8 8 7
5 5 5 5 7 8 8 7 7 6 6 7 7 7 7 7 7 7 7 7 7 7 8 8 9 9 9 8 8 8 7 7 5 4 5 5 5 7 8 8 7 7 7
5 5 6 6 7 8 8 8 7 7 7 7 7 7 7 7 7 7 7 6 7 7 8 8 9 9 9 8 8 7 7 6 4 5 5 5 5 7 8 8 8 7 7
6 5 6 6 6 7 7 7 6 6 7 7 6 7 7 7 7 7 7 7 7 8 8 8 9 9 8 8 8 7 7 5 4 5 5 5 6 7 8 8 8 7 7
5 5 5 6 6 6 6 6 6 6 6 6 6 6 6 6 7 7 7 7 7 8 8 9 9 9 9 8 8 8 7 5 4 4 5 5 6 7 7 7 7 7 8
5 5 4 5 5 5 5 5 5 5 6 6 7 6 6 6 6 6 6 7 7 8 9 9 9 8 8 8 8 8 7 5 3 3 4 4 6 6 7 8 8 7 8
4 4 4 4 4 4 4 5 5 5 6 6 7 7 6 6 6 6 6 7 8 8 9 9 9 9 8 8 8 8 6 3 4 3 3 5 6 7 7 7 7 7 8
4 3 3 3 3 3 3 4 4 5 5 5 5 6 4 3 3 4 6 7 8 8 8 9 9 9 8 8 8 7 4 3 4 3 3 5 5 6 6 6 6 7 7
5 4 3 3 3 3 3 3 2 3 3 3 3 4 2 2 3 4 7 8 8 8 8 8 8 7 4 4 5 4 3 4 3 3 4 6 5 5 5 5 6 6 6
5 4 4 3 3 3 2 2 1 1 2 2 3 3 3 3 3 3 3 4 4 5 4 5 4 3 3 3 3 3 3 3 2 3 4 6 5 4 4 4 5 5 5
5 5 4 4 4 3 3 2 2 1 1 1 2 3 3 2 2 2 2 2 2 2 3 2 2 3 3 4 3 3 3 2 2 2 4 7 5 4 5 5 4 4 5
5 5 5 5 4 4 3 2 2 2 2 2 2 3 3 3 2 2 2 2 2 2 2 2 2 3 3 3 3 3 3 3 3 2 3 7 6 5 5 4 4 4 5
6 6 5 5 5 5 4 3 3 2 2 2 2 3 4 3 3 3 3 2 2 2 2 2 2 2 2 2 3 3 2 2 3 2 2 4 6 5 5 4 4 4 4
7 6 6 6 6 6 5 4 3 2 2 2 2 3 4 4 4 3 3 3 2 3 3 3 3 2 2 2 2 2 2 3 2 2 2 2 2 5 5 5 4 4 4
7 7 6 5 5 6 5 4 3 3 3 2 2 3 3 4 4 4 3 3 3 3 3 3 2 2 2 2 2 2 2 2 2 2 2 2 2 2 4 5 4 4 3
8 8 7 7 6 6 6 4 4 3 3 2 2 3 4 4 5 4 3 3 3 3 3 3 2 2 2 2 2 2 1 1 2 2 2 2 2 2 2 3 4 4 3
8 8 7 7 6 6 5 4 3 4 3 3 3 3 4 4 5 5 4 4 4 3 3 3 3 2 2 2 2 1 1 1 1 1 1 1 1 2 2 2 2 3 4
8 8 8 8 7 6 5 5 4 4 4 4 4 4 5 5 6 5 4 5 4 4 4 4 4 4 3 2 1 1 0 0 0 0 0 1 1 1 1 2 2 2 2
9 9 8 8 7 7 6 5 3 3 4 4 3 4 5 5 6 5 6 5 5 4 5 5 5 3 2 2 1 1 1 2 2 1 1 1 1 1 1 1 1 2 2
9 9 8 8 8 7 7 4 3 3 2 3 5 5 5 6 6 6 6 5 6 5 5 6 6 5 4 3 2 2 2 2 1 2 2 2 2 1 1 1 1 1 2
9 8 8 8 8 8 7 7 8 6 6 6 5 5 5 6 7 7 7 7 6 5 6 6 6 5 5 4 3 2 2 1 2 1 2 2 2 3 2 2 2 2 2
8 8 8 8 8 8 8 8 9 8 6 4 5 6 6 6 7 7 7 7 6 6 6 7 6 6 5 5 4 3 2 2 2 2 2 2 2 3 3 3 2 2 2
6 7 7 7 8 8 8 8 9 9 8 7 7 6 6 5 6 7 7 7 7 6 6 7 7 7 6 6 5 4 3 3 3 3 3 2 2 2 3 3 3 3 3
Wind_Direction
165 166 166 144 126 114 107 101 96 100 100 99 94 91 87 84 82 79 77 76 76 73 75 77 78 79 80 78 77 73 70 69 66 65 66 67 68 71 70 65 65 77 75
164 169 147 143 127 117 110 104 100 100 99 98 96 94 90 86 82 81 77 75 74 74 76 77 78 79 79 78 78 75 71 69 65 62 62 76 72 68 67 63 62 69 71
153 157 151 132 122 117 111 107 103 102 101 99 98 96 92 88 84 82 79 76 76 77 78 80 81 80 78 79 79 77 74 70 67 59 58 77 78 70 68 66 65 67 69
147 151 151 119 116 114 110 106 104 102 102 100 99 99 95 92 88 85 83 79 79 79 81 82 81 81 80 78 78 78 76 73 67 52 73 69 72 71 70 67 63 62 63
138 144 132 112 114 112 109 106 106 105 103 102 100 101 100 95 91 87 82 80 80 82 84 84 81 79 77 76 75 76 76 74 68 72 73 70 69 71 70 67 63 60 59
133 133 127 111 113 112 111 108 104 105 101 100 97 96 96 93 91 87 84 82 83 86 87 85 84 79 76 73 72 69 71 70 80 77 72 70 69 70 67 68 66 62 60
133 130 128 108 108 111 112 112 107 108 106 102 97 94 92 92 88 86 84 83 83 86 86 85 83 82 78 75 70 67 63 56 71 74 68 69 67 68 70 68 68 65 64
131 128 125 105 97 100 104 105 104 105 105 103 99 95 91 91 88 85 86 87 88 87 85 85 82 82 80 75 73 68 60 45 83 76 75 73 62 69 72 68 69 71 68
131 129 127 129 118 101 89 89 94 98 100 96 94 89 83 83 84 76 76 87 91 89 88 86 83 81 80 76 72 66 57 39 67 72 72 73 63 69 72 72 73 73 72
133 133 133 133 132 135 126 93 88 93 96 94 90 84 78 80 82 72 77 84 88 88 88 86 83 80 77 72 68 60 48 42 62 66 65 67 61 68 69 67 73 74 73
146 145 145 146 141 136 133 117 113 104 100 105 102 93 98 108 106 94 78 77 84 84 85 84 83 80 76 72 61 49 39 52 57 51 52 58 63 67 69 65 68 72 70
179 172 163 165 153 147 138 139 147 140 134 140 136 132 129 114 99 97 81 73 75 78 80 77 79 83 78 80 68 49 48 50 50 52 49 47 62 67 75 69 71 67 67
192 187 182 178 171 162 157 153 146 142 139 147 144 142 137 126 121 116 111 104 97 91 87 85 85 82 76 72 66 59 51 44 43 46 42 35 47 55 65 70 72 68 75
198 196 190 187 182 177 172 164 158 148 146 150 151 149 149 137 135 132 126 125 119 110 103 93 82 79 77 73 68 65 59 42 40 39 37 28 34 46 58 64 63 64 73
202 203 199 199 190 184 173 167 166 168 163 149 163 162 158 153 152 144 139 134 130 129 129 114 100 92 83 75 69 61 56 42 45 43 42 33 26 38 52 57 57 59 69
207 205 203 205 199 188 182 178 178 177 169 173 170 168 168 166 161 155 152 149 143 138 131 127 117 106 92 80 72 63 57 44 47 42 39 42 34 32 40 46 49 56 64
206 202 205 205 202 194 194 189 183 179 179 188 180 175 178 176 171 164 163 159 156 148 141 135 125 120 105 92 80 62 51 40 48 44 30 27 39 40 39 42 45 51 49
205 201 205 202 204 199 196 192 187 186 186 189 188 180 184 184 176 170 167 166 164 161 155 147 143 135 122 106 80 58 47 44 49 46 39 33 29 29 47 45 44 48 42
205 201 200 199 202 199 192 192 189 189 193 194 196 191 185 188 184 177 176 167 167 165 162 157 155 150 139 114 83 61 43 40 39 47 43 32 32 27 27 47 41 34 28
204 198 197 197 202 197 186 187 192 193 197 201 202 200 192 189 190 183 178 171 170 169 170 168 159 145 142 127 106 70 41 38 17 33 32 24 26 25 23 26 29 39 33
201 199 197 197 197 195 188 189 194 202 201 204 206 205 202 196 190 191 183 178 179 179 179 176 165 155 143 142 144 132 115 97 274 295 343 352 1 0 13 20 8 10 24
204 202 201 203 198 202 201 197 205 203 205 208 205 211 210 200 196 195 192 186 184 182 179 180 175 165 157 179 190 192 209 203 205 229 241 267 293 305 329 351 357 356 341
210 207 205 206 202 204 203 192 182 189 198 203 211 212 213 205 199 198 195 192 189 187 186 187 188 185 178 186 217 228 220 221 206 204 224 237 255 277 286 311 310 316 317
217 211 211 209 205 202 200 201 198 202 209 213 210 207 206 206 202 202 197 194 194 194 191 192 197 199 189 192 196 234 269 258 222 216 209 221 239 257 263 266 267 270 276
219 211 208 208 208 203 207 211 212 216 219 211 205 208 208 206 206 204 200 196 196 197 197 196 196 202 200 202 195 188 200 220 239 236 238 231 238 242 253 260 264 259 255
217 209 207 207 211 206 209 216 218 219 215 208 207 209 211 206 207 204 203 199 200 199 201 202 198 203 204 205 203 199 199 204 205 218 235 250 260 254 255 250 246 252 249